Regional Weather Roundup
Issued by NWS

Home | Current Version | Previous Version | Text Only | Print | Product List | Glossary Off
Versions: 1 2 3 4 5 6 7 8 9 10 11 12 13 14 15 16 17 18 19 20 21 22 23 24 25 26 27 28 29 30 31 32 33 34 35 36 37 38 39 40 41 42 43 44 45 46 47 48 49 50

256
ASUS43 KDTX 240201
RWRMI
MICHIGAN HOURLY REGIONAL WEATHER ROUNDUP
NATIONAL WEATHER SERVICE DETROIT/PONTIAC MI
1000 PM EDT MON OCT 23 2017

NOTE: "FAIR" INDICATES FEW OR NO CLOUDS BELOW 12,000 FEET WITH NO
SIGNIFICANT WEATHER AND/OR OBSTRUCTION TO VISIBILITY.

MIZ047>049-052>055-059>063-066>070-074>076-081>083-240300-
SOUTHEAST LOWER MICHIGAN

CITY           SKY/WX    TMP DP  RH WIND       PRES   REMARKS
ADRIAN         LGT RAIN  53  51  93 W13       29.49R
ALMA           DRIZZLE   51  49  93 NW17G25   29.39R
ANN ARBOR      CLOUDY    54  52  93 SW18G29   29.44R
BAD AXE        CLOUDY    61  58  89 S17G29    29.39R
CARO           RAIN      60  56  87 SE12G22   29.35F
DETROIT CITY   CLOUDY    60  57  89 S23G33    29.44F
DETROIT        LGT RAIN  57  54  89 S28G38    29.46S
FLINT          CLOUDY    59  56  89 S16G29    29.35F
GROSSE ILE     RAIN      58  55  90 SW22G37   29.46S
HILLSDALE      LGT RAIN  52  48  87 W18G30    29.51R
HOWELL         DRIZZLE   53  52  97 W12       29.39R

CITY           SKY/WX    TMP DP  RH WIND       PRES   REMARKS
JACKSON        LGT RAIN  52  50  93 SW17      29.47R
LAMBERTVILLE   LGT RAIN  57  54  88 SW8G18    29.50R
LANSING        RAIN      52  49  89 W16       29.43R FOG
LAPEER         CLOUDY    60  57  91 S18G30    29.38F
MASON          RAIN      53  51  92 W18G25    29.43R
MONROE         LGT RAIN  57  54  88 SW13G21   29.47S
MT. CLEMENS    CLOUDY    61  61 100 S26G33    29.42F
PONTIAC        CLOUDY    59  57  93 S26G37    29.38F
PORT HOPE        N/A     62  58  86 S17G32    29.36F
PORT HURON     CLOUDY    61  57  88 S18G28    29.46F
TRI CITIES     LGT RAIN  53  53 100 NW17G28   29.34S FOG
MIDLAND        LGT RAIN  52  51  97 NW14G20   29.34F
TROY           CLOUDY    61  56  85 S18G32    29.44F
SAGINAW HB     RAIN      59  57  94 S15       29.33S
$$
MIZ043>046-050>051-056>058-064>065-071>073-077>080-240300-
SOUTHWEST LOWER MICHIGAN

CITY           SKY/WX    TMP DP  RH WIND       PRES   REMARKS
BATTLE CREEK   RAIN      50  49  96 W20G26    29.54R
BENTON HARBOR  CLOUDY    54  46  74 W14G23    29.61S
BIG RAPIDS     LGT SNOW  47  44  89 NW13G20   29.46F
COLDWATER      LGT RAIN  51  51  99 W15       29.55R
FREMONT        LGT RAIN  47  47 100 NW14G20   29.53S
HOLLAND        CLOUDY    51  46  83 NW8       29.57S
GRAND RAPIDS   RAIN      51  50  96 W20G26    29.51R
IONIA          RAIN      51  50  96 W20G29    29.46R
KALAMAZOO      LGT RAIN  51  46  83 NW16G26   29.58R
LUDINGTON      LGT RAIN  47  45  93 N3        29.54F
MARSHALL       LGT RAIN  50  50  99 W17G28    29.51R
MOUNT PLEASANT DRIZZLE   52  49  90 NW12G22   29.37F
MUSKEGON       LGT RAIN  51  46  83 NW10      29.56S
SOUTH HAVEN    LGT RAIN  55  51  86 NW8G18    29.58S
$$
MIZ016>042-240300-
NORTHERN LOWER MICHIGAN

CITY           SKY/WX    TMP DP  RH WIND       PRES   REMARKS
ALPENA         HVY RAIN  55  55 100 NW7       29.37F FOG
BEAVER ISLAND  RAIN      49  47  93 N6        29.55F
BELLAIRE       MIX PCPN  48  45  90 NW9G17    29.50F
CADILLAC       LGT RAIN  45  44  96 NW13G26   29.47F
CHARLEVOIX     RAIN      49  47  90 N17G25    29.53F
FRANKFORT      RAIN      50  47  90 N7        29.54F
GAYLORD        RAIN      46  44  93 NW10      29.44F FOG
GRAYLING       LGT RAIN  47  44  89 NW16G23   29.43F
HARBOR SPRINGS RAIN      49  48  95 NW7       29.49F
HOUGHTON LAKE  RAIN      47  45  93 NW18      29.41F
OSCODA         LGT RAIN  61  60  97 SE10G22   29.32F
PELLSTON       LGT RAIN  50  48  93 NW16      29.49F
ROGERS CITY    HVY RAIN  53  53  98 N13G20    29.40F
TRAVERSE CITY  RAIN      50  45  83 N8        29.50F
$$
MIZ007>008-015-240300-
EASTERN UPPER MICHIGAN

CITY           SKY/WX    TMP DP  RH WIND       PRES   REMARKS
KINROSS        RAIN      50  49  96 N17       29.50F
MACKINAC ISLAN RAIN      50  50 100 N15G24    29.48F
NEWBERRY       RAIN      47  46  97 N8        29.58F
S. S. MARIE    RAIN      52  49  89 NW9G16    29.50F FOG
MUNISING         N/A     47  47 100 S3        29.60F
$$
MIZ004>006-011>014-085-240300-
CENTRAL UPPER MICHIGAN

CITY           SKY/WX    TMP DP  RH WIND       PRES   REMARKS
MANISTIQUE     CLOUDY    47  42  81 N6        29.58F
ESCANABA       CLOUDY    48  46  93 N3        29.60F
MENOMINEE      CLOUDY    48  46  93 N5        29.60F
SAWYER-GWINN   PTCLDY    46  41  81 N6        29.62F
$$
MIZ001>003-009>011-084-240300-
WESTERN UPPER MICHIGAN

CITY           SKY/WX    TMP DP  RH WIND       PRES   REMARKS
IRON MOUNTAIN  CLOUDY    45  40  82 CALM      29.60F
HOUGHTON       CLOUDY    50  43  77 N9        29.63F
COPPER HARBOR    N/A     48  44  86 CALM      29.64F
IRONWOOD       LGT RAIN  49  44  83 NW12G23   29.71R
$$

ABBREVIATIONS USED IN REMARKS
   TC - TEMPERATURE IN CELSIUS
  WCI - WIND CHILL INDEX
   HX - HEAT INDEX
  VSB - VISIBILITY





USA.gov is the U.S. government's official web portal to all federal, state and local government web resources and services.